sat.trackr.live / text

‹ back to catalog

STARLINK-3308

NORAD 50846 · 2022-001AV

PAYLOAD ACTIVE UNKNOWN

§ Identity

Operator
Country
US
Launch date
2022-01-06
Launch site
AFETR
Launch vehicle
Mass (kg)
RCS (m²)

Purposes: comms

External: N2YO · Heavens-Above · Gunter

§ Orbital elements

Epoch: 2026-05-25T04:18:43.085376Z

Period
95.44 min
Inclination
53.2129°
Eccentricity
0.0001067
Mean motion
15.08834473 rev/d
Perigee alt
539.0 km
Apogee alt
540.5 km
Semi-major
6,917.9 km
B*
1.2265e-5
RAAN
195.8608°
Arg perigee
75.5575°
Mean anomaly
284.5536°
Rev number
24,181

§ Raw data

STARLINK-33081 50846U 22001AV  26145.17966534 -.00000093  00000+0  12265-4 0  99992 50846  53.2129 195.8608 0001067  75.5575 284.5536 15.08834473241814

JSON: /api/v1/satellites/50846 · /tle

For live sub-satellite position, see the globe view (requires WebGL).

§ Visibility from observer

Set your observer location to see the next 7 days of passes ≥ 10°. The values pass through the URL so the page stays shareable.

No JS? Fill the form by hand. The geolocation button needs JavaScript.